Regional Weather Roundup
Issued by NWS

Home | Current Version | Previous Version | Text Only | Print | Product List | Glossary On
Versions: 1 2 3 4 5 6 7 8 9 10 11 12 13 14 15 16 17 18 19 20 21 22 23 24 25 26 27
000
ASUS44 KLIX 041913
RWRLA
LOUISIANA WEATHER ROUNDUP
NATIONAL WEATHER SERVICE NEW ORLEANS LA
100 PM CST SUN DEC 04 2016

NOTE: "FAIR" INDICATES FEW OR NO CLOUDS BELOW 12,000 FEET WITH NO
      SIGNIFICANT WEATHER AND/OR OBSTRUCTIONS TO VISIBILITY.
      SKY/WX - SKY CONDITION AND SIGNIFICANT WEATHER.
      TMP - AIR TEMPERATURE.    DP   - DEWPOINT TEMPERATURE.
      RH  - RELATIVE HUMIDITY.  PRES - PRESSURE.
      HX  - HEAT INDEX.         WCI  - WIND CHILL INDEX.

*  THESE STATIONS ARE NOT NWS OR FAA STATIONS AND ARE NOT UNDER
   NWS QUALITY CONTROL.

LAZ040-048-061>063-065-066-069-042000-
SOUTHEAST LOUISIANA

CITY           SKY/WX    TMP DP  RH WIND       PRES   REMARKS
N.O. AUDUBON   NOT AVBL
N.O. INTL ARPT CLOUDY    67  67 100 NW7       29.88F FOG
N.O. LAKEFRONT CLOUDY    68  67  96 SW5       29.88F FOG
N.O. DOWNTOWN*   N/A     70  69  97 CALM      29.89F
RESERVE*       CLOUDY    68  66  94 N8        29.88F FOG
SLIDELL        RAIN      70  69  97 CALM      29.88F FOG
BATON ROUGE    LGT RAIN  56  55  97 N5        29.93F FOG
BOOTHVILLE     CLOUDY    74  73  97 S10       29.87F
BELLE CHASSE   CLOUDY    71  70  96 CALM      29.87F
BOGALUSA*      CLOUDY    63  58  86 NW3       29.94R
GALLIANO*      CLOUDY    77  68  72 NW5       29.87F
NEW ROADS*     DRIZZLE   53  52  97 CALM      29.94F
GONZALES*      HVY RAIN  60  60  99 NW8       29.91S
HAMMOND*       DRIZZLE   63  61  94 NW7       29.92S
HOUMA*         NOT AVBL
PORT FOURCHON* PTCLDY    73  72  94 NW6       29.86F

$$

LAZ041-044-053-054-042000-
SOUTHWEST LOUISIANA

CITY           SKY/WX    TMP DP  RH WIND       PRES   REMARKS
LAKE CHARLES   LGT RAIN  55  55 100 N8        29.94R
LAFAYETTE      LGT RAIN  56  55  97 NE6       29.91F
PATTERSON      CLOUDY   N/A N/A N/A NW8       29.90F
SALT POINT     NOT AVBL
NEW IBERIA     LGT RAIN  55  52  89 NE8       29.92F
CHENAULT AIRPK NOT AVBL

$$

LAZ027-028-042000-
CENTRAL LOUISIANA

CITY           SKY/WX    TMP DP  RH WIND       PRES   REMARKS
FORT POLK      LGT RAIN  50  49  98 N7        29.96R FOG
ALEXANDRIA INT LGT RAIN  50  49  96 N7        29.95F
ALEXANDRIA     LGT RAIN  51  50  96 N7        29.96F

$$

LAZ001-002-042000-
NORTHWEST LOUISIANA

CITY           SKY/WX    TMP DP  RH WIND       PRES   REMARKS
SHREVEPORT     CLOUDY    50  48  93 N10       30.00F
BARKSDALE AFB  CLOUDY    49  49  99 N12       30.01F
DTN SHREVEPORT CLOUDY    50  46  86 NW9       30.02F

$$

LAZ014-016-042000-
NORTHEAST LOUISIANA

CITY           SKY/WX    TMP DP  RH WIND       PRES   REMARKS
MONROE         CLOUDY    49  47  93 NW6       30.00F
TALLULAH       LGT RAIN  50  48  93 W7        29.98R

$$





USA.gov is the U.S. government's official web portal to all federal, state and local government web resources and services.